Location: Smoky Mountain Stargaze
(35.4252°N, 83.3329°W)
Time: 23:07:46
(UTC-04:00)

Amateur Radio Satellites - All Passes

Search period start: 29 June 2016 22:37
Search period end: 30 June 2016 22:37
Location: Smoky Mountain Stargaze, 35.4252°N, 83.3329°W

Satellite Date Start Highest point End Downlink Frequencies (MHz)
Time Altitude Azimuth
CUBEBUG 2 29 Jun 22:39:38 22:42:23 17° 267° (W) 22:45:10 437.445
DELFI C3 29 Jun 22:42:54 22:46:55 77° 258° (WSW) 22:50:58 145.870
AAUSAT CUBESAT 2 29 Jun 22:44:56 22:46:39 12° 268° (W) 22:48:23 437.432
ZACube-1 29 Jun 22:59:22 23:02:43 23° 265° (W) 23:06:09 437.345
TIGRISAT 29 Jun 23:02:13 23:05:42 21° 95° (E) 23:09:12 435.000
Oscar 11 29 Jun 23:07:05 23:10:06 18° 266° (W) 23:13:08 145.826/435.025
UNISAT 6 29 Jun 23:07:31 23:11:22 25° 96° (E) 23:15:14 437.425
FUNcube-1 29 Jun 23:17:05 23:19:40 16° 267° (W) 23:22:17 145.935
CUBEBUG 1 29 Jun 23:20:41 23:22:40 13° 66° (ENE) 23:24:40 437.445
VELOX 1 29 Jun 23:31:32 23:34:17 16° 67° (ENE) 23:37:01 145.980
AO-85 29 Jun 23:32:29 23:35:50 16° 313° (NW) 23:39:06 145.980
Cosmos 2491 29 Jun 23:44:59 23:49:00 14° 78° (ENE) 23:53:01 435.465 / 435.565
ANTELSAT 29 Jun 23:46:37 23:51:18 69° 102° (ESE) 23:55:59 437.575/2403.000
HUMSAT D 30 Jun 00:00:44 00:03:53 21° 265° (W) 00:07:05 437.325/437.525
SPROUT 30 Jun 00:04:11 00:06:36 15° 67° (ENE) 00:09:02 437.525
UKube-1 30 Jun 00:04:16 00:07:40 23° 69° (ENE) 00:11:05 .
AISAT 30 Jun 00:10:49 00:15:03 48° 74° (ENE) 00:19:17 437.250
ESTCUBE 1 30 Jun 00:12:06 00:16:38 80° 75° (ENE) 00:21:11 437.505/2401.250
DX 1 30 Jun 00:25:53 00:30:06 53° 74° (ENE) 00:34:20 434.975-435.025
YUBILEINY 30 Jun 00:29:52 00:38:35 58° 80° (E) 00:47:14 435.215
50 SAT 30 Jun 00:35:31 00:39:13 75° 258° (WSW) 00:42:57 437.505
TIGRISAT 30 Jun 00:38:12 00:42:24 34° 288° (WNW) 00:46:37 435.000
NANOSAT C BR1 30 Jun 00:38:18 00:42:14 36° 98° (E) 00:46:09 145.865
RS-15 30 Jun 00:38:52 00:44:58 15° 263° (W) 00:51:03 29.354- 29.394
QB50P1 30 Jun 00:42:01 00:46:05 43° 99° (E) 00:50:08 145.935-145.965
UNISAT 6 30 Jun 00:44:02 00:47:59 28° 290° (WNW) 00:51:57 437.425
POPSAT HIP 1 30 Jun 00:45:20 00:49:27 46° 100° (E) 00:53:34 437.405
Cosmos 2504 30 Jun 00:46:17 00:52:55 23° 69° (ENE) 00:59:18 435.465 / 435.565
SO-50 30 Jun 00:53:50 00:57:59 32° 53° (NE) 01:02:02 436.795
CUBEBUG 1 30 Jun 00:54:18 00:58:31 48° 260° (W) 01:02:44 437.445
QB50P2 30 Jun 00:57:55 01:02:12 73° 103° (ESE) 01:06:28 145.880/145.840
DUCHIFAT 1 30 Jun 00:57:58 01:02:10 60° 101° (ESE) 01:06:21 145.980
POLYITAN 1 30 Jun 01:00:32 01:04:50 75° 102° (ESE) 01:09:07 437.675
VELOX 1 30 Jun 01:06:17 01:10:24 39° 261° (W) 01:14:32 145.980
JAS-2 30 Jun 01:06:53 01:10:15 17° 92° (E) 01:13:29 435.910
TISAT 1 30 Jun 01:18:05 01:21:30 25° 70° (ENE) 01:24:56 437.305
ANTELSAT 30 Jun 01:26:10 01:27:23 11° 296° (WNW) 01:28:36 437.575/2403.000
Cosmos 2491 30 Jun 01:35:41 01:44:28 87° 96° (E) 01:53:15 435.465 / 435.565
SPROUT 30 Jun 01:38:14 01:42:12 39° 261° (W) 01:46:12 437.525
UKube-1 30 Jun 01:39:59 01:43:35 25° 263° (W) 01:47:10 .
BUGSAT 1 30 Jun 01:47:53 01:52:00 78° 284° (WNW) 01:56:09 437.445
AISAT 30 Jun 01:49:54 01:51:45 12° 267° (W) 01:53:37 437.250
BEESAT 3 30 Jun 01:56:17 01:58:50 17° 110° (ESE) 02:01:22 437.485
DX 1 30 Jun 02:05:22 02:06:33 11° 268° (W) 02:07:44 434.975-435.025
NANOSAT C BR1 30 Jun 02:15:01 02:17:38 16° 292° (WNW) 02:20:16 145.865
QB50P1 30 Jun 02:19:15 02:21:28 14° 293° (WNW) 02:23:40 145.935-145.965
POPSAT HIP 1 30 Jun 02:22:49 02:24:49 13° 294° (WNW) 02:26:48 437.405
SWISSCUBE 30 Jun 02:26:07 02:30:20 32° 70° (ENE) 02:34:35 437.505
YUBILEINY 30 Jun 02:27:47 02:34:43 27° 277° (W) 02:41:38 435.215
SO-50 30 Jun 02:34:38 02:38:16 23° 250° (WSW) 02:41:49 436.795
BEESAT 2 30 Jun 02:36:16 02:39:34 26° 112° (ESE) 02:42:54 435.950
DUCHIFAT 1 30 Jun 02:36:50 02:37:19 10° 295° (WNW) 02:37:47 145.980
Cosmos 2504 30 Jun 02:38:15 02:47:03 70° 267° (W) 02:55:22 435.465 / 435.565
PCSat 30 Jun 02:38:39 02:44:03 89° 112° (ESE) 02:49:31 145.827
O/OREOS (USA 219) 30 Jun 02:46:47 02:50:59 41° 105° (ESE) 02:55:12 437.305
JAS-2 30 Jun 02:50:27 02:55:43 47° 289° (WNW) 03:00:40 435.910
BEESAT 30 Jun 02:50:44 02:55:22 53° 73° (ENE) 03:00:03 436.000
ITUPSAT 1 30 Jun 02:52:46 02:57:26 55° 73° (ENE) 03:02:08 437.325
TISAT 1 30 Jun 02:53:54 02:57:05 21° 264° (W) 03:00:17 437.305
Oscar 19 30 Jun 02:55:11 03:00:19 71° 102° (ESE) 03:05:25 437.125/150
KKS-1 30 Jun 03:19:09 03:19:47 10° 64° (ENE) 03:20:24 437.445
ITAMSAT 1 30 Jun 03:22:26 03:25:49 17° 93° (E) 03:29:11 435.822/435.867
Gurwin Techsat 1B 30 Jun 03:24:18 03:29:33 57° 101° (E) 03:34:45 435.225
BEESAT 3 30 Jun 03:32:41 03:36:14 32° 305° (NW) 03:39:48 437.485
Cosmos 2491 30 Jun 03:37:11 03:42:23 17° 294° (WNW) 03:47:37 435.465 / 435.565
AO-7 30 Jun 03:43:33 03:47:57 15° 92° (E) 03:52:19 29.400- 29.500
STARS 30 Jun 03:47:19 03:47:40 10° 64° (ENE) 03:48:01 437.465
AIST 1 30 Jun 03:59:26 04:01:37 14° 73° (ENE) 04:03:48
SWISSCUBE 30 Jun 04:04:24 04:08:07 22° 265° (W) 04:11:52 437.505
BEESAT 2 30 Jun 04:14:13 04:17:21 22° 308° (NW) 04:20:31 435.950
PCSat 30 Jun 04:25:44 04:28:11 13° 313° (NW) 04:30:39 145.827
O/OREOS (USA 219) 30 Jun 04:27:42 04:30:33 16° 301° (WNW) 04:33:24 437.305
BEESAT 30 Jun 04:31:08 04:33:25 13° 267° (W) 04:35:43 436.000
ITUPSAT 1 30 Jun 04:33:21 04:35:33 13° 268° (W) 04:37:46 437.325
GONETS M04 30 Jun 04:34:57 04:38:14 12° 63° (ENE) 04:41:30
Oscar 19 30 Jun 04:36:57 04:38:59 12° 297° (WNW) 04:41:01 437.125/150
Cosmos 2504 30 Jun 04:37:42 04:38:37 10° 286° (WNW) 04:39:33 435.465 / 435.565
KKS-1 30 Jun 04:51:22 04:55:45 65° 259° (WSW) 05:00:09 437.445
CUBESAT XI-V 30 Jun 04:51:41 04:53:03 11° 64° (ENE) 04:54:24 437.345
MOZHAYETS 4 30 Jun 04:53:06 04:57:42 73° 258° (WSW) 05:02:21
ITAMSAT 1 30 Jun 05:00:29 05:05:30 48° 288° (WNW) 05:10:29 435.822/435.867
Gurwin Techsat 1B 30 Jun 05:05:46 05:08:58 16° 296° (WNW) 05:12:10 435.225
AIST 2 30 Jun 05:08:31 05:12:34 67° 117° (ESE) 05:16:41 435.215
Cosmos 2499 30 Jun 05:18:46 05:24:02 17° 65° (ENE) 05:29:06 435.465 / 435.565
STARS 30 Jun 05:19:07 05:23:26 64° 259° (W) 05:27:47 437.465
PHONESAT 2.4 30 Jun 05:30:45 05:32:39 15° 144° (SE) 05:34:34 2401.200-2431.200
AO-7 30 Jun 05:33:10 05:41:36 89° 108° (ESE) 05:49:58 29.400- 29.500
AIST 1 30 Jun 05:35:25 05:39:21 38° 268° (W) 05:43:18
HORYU 2 30 Jun 06:10:41 06:15:05 52° 100° (E) 06:19:27 437.375
CUBESAT XI-V 30 Jun 06:25:08 06:29:49 67° 259° (WSW) 06:34:30 437.345
AO-85 30 Jun 06:25:26 06:29:10 25° 51° (NE) 06:32:38 145.980
GONETS M04 30 Jun 06:27:47 06:36:32 76° 83° (E) 06:45:18
NOAA 15 30 Jun 06:36:56 06:40:36 19° 94° (E) 06:44:14 137.62
AIST 2 30 Jun 06:50:04 06:51:29 12° 314° (NW) 06:52:56 435.215
STRAND 1 30 Jun 06:50:55 06:53:57 16° 64° (ENE) 06:57:00 437.568
PHONESAT 2.4 30 Jun 07:05:55 07:08:58 84° 335° (NNW) 07:12:02 2401.200-2431.200
Cosmos 2499 30 Jun 07:09:35 07:18:20 87° 267° (W) 07:26:28 435.465 / 435.565
CUSAT 1 30 Jun 07:10:57 07:17:31 31° 91° (E) 07:23:18 437.405
BRITE-PL 30 Jun 07:11:23 07:15:17 39° 99° (E) 07:19:16 437.365/2234.400
Cubesat XI-IV 30 Jun 07:19:16 07:24:13 36° 98° (E) 07:29:07 437.490
NOAA 18 30 Jun 07:27:25 07:32:46 47° 100° (E) 07:38:05 137.9125
AO-7 30 Jun 07:27:55 07:33:14 19° 306° (NW) 07:38:34 29.400- 29.500
GOMX 1 30 Jun 07:36:08 07:39:59 32° 98° (E) 07:44:00 467.674
DANDE 30 Jun 07:48:33 07:55:43 33° 89° (E) 08:02:30 436.750
HORYU 2 30 Jun 07:49:03 07:51:09 13° 295° (WNW) 07:53:14 437.375
CUTE-I 30 Jun 07:52:45 07:58:09 79° 103° (ESE) 08:03:30 437.470
LilacSat-2 30 Jun 08:04:12 08:08:02 60° 284° (WNW) 08:11:52 437.200
AO-85 30 Jun 08:05:57 08:09:29 25° 250° (WSW) 08:12:49 145.980
NOAA 15 30 Jun 08:15:34 08:20:32 44° 288° (WNW) 08:25:28 137.62
ISS 30 Jun 08:23:23 08:26:36 63° 136° (SE) 08:29:50 145.825
GONETS M04 30 Jun 08:26:43 08:32:19 19° 280° (W) 08:37:55
DOVE 4 30 Jun 08:27:10 08:31:30 56° 100° (E) 08:36:05 437.250
STRAND 1 30 Jun 08:27:36 08:32:37 55° 259° (W) 08:37:41 437.568
PRISM 30 Jun 08:41:30 08:45:01 27° 71° (ENE) 08:48:33 437.425
PHONESAT 2.4 30 Jun 08:43:01 08:45:48 31° 354° (N) 08:48:36 2401.200-2431.200
BRITE-PL 30 Jun 08:51:22 08:53:27 14° 293° (WNW) 08:55:35 437.365/2234.400
CUSAT 1 30 Jun 08:51:59 08:59:25 46° 282° (WNW) 09:05:46 437.405
HO-68 30 Jun 08:54:21 09:00:50 35° 98° (E) 09:07:15 435.675
Cubesat XI-IV 30 Jun 08:59:43 09:04:03 25° 293° (WNW) 09:08:21 437.490
Cosmos 2499 30 Jun 09:06:01 09:09:58 14° 283° (WNW) 09:13:50 435.465 / 435.565
NOAA 18 30 Jun 09:09:00 09:13:02 21° 295° (WNW) 09:17:03 137.9125
CINEMA 3 30 Jun 09:09:44 09:14:13 47° 99° (E) 09:18:52 145.822/145.860
GOMX 1 30 Jun 09:14:59 09:17:52 18° 291° (WNW) 09:20:50 467.674
COMPASS 1 30 Jun 09:28:23 09:32:04 30° 97° (E) 09:35:43 437.405
DANDE 30 Jun 09:30:07 09:38:15 52° 282° (WNW) 09:45:50 436.750
CANX-2 30 Jun 09:33:19 09:37:37 89° 95° (E) 09:41:53 2200.000
CUTE-I 30 Jun 09:35:28 09:37:28 12° 298° (WNW) 09:39:27 437.470
UWE-3 30 Jun 09:39:20 09:42:43 20° 94° (E) 09:46:07 435.000/436.395/437.385
CUTE 1.7 + AOD 2 30 Jun 09:53:02 09:57:15 61° 284° (WNW) 10:01:27 437.475
SEEDS 30 Jun 09:53:35 09:57:50 87° 280° (W) 10:02:02 437.485
AUBIESAT-1 30 Jun 09:57:31 10:00:23 18° 101° (E) 10:03:22 437.475
TIGRISAT 30 Jun 09:59:53 10:01:27 12° 65° (ENE) 10:03:04 435.000
ISS 30 Jun 10:01:19 10:03:19 15° 332° (NNW) 10:05:21 145.825
UNISAT 6 30 Jun 10:04:45 10:07:09 15° 66° (ENE) 10:09:34 437.425
DOVE 4 30 Jun 10:07:11 10:08:47 12° 293° (WNW) 10:10:25 437.250
PRISM 30 Jun 10:17:15 10:20:17 20° 264° (W) 10:23:21 437.425
PHONESAT 2.4 30 Jun 10:19:55 10:22:49 37° 11° (N) 10:25:42 2401.200-2431.200
DELFI C3 30 Jun 10:24:45 10:27:18 16° 94° (E) 10:29:50 145.870
AAUSAT CUBESAT 2 30 Jun 10:27:28 10:31:35 62° 284° (WNW) 10:35:39 437.432
CUBEBUG 2 30 Jun 10:31:13 10:35:52 72° 284° (WNW) 10:40:34 437.445
RS-15 30 Jun 10:33:14 10:40:57 22° 100° (E) 10:48:52 29.354- 29.394
M-CUBED/EXP-1 PRIME 30 Jun 10:37:25 10:41:26 69° 106° (ESE) 10:45:46 437.505
HO-68 30 Jun 10:41:54 10:48:29 40° 293° (WNW) 10:55:02 435.675
ANTELSAT 30 Jun 10:42:36 10:46:36 39° 73° (ENE) 10:50:42 437.575/2403.000
CINEMA 3 30 Jun 10:48:17 10:50:59 16° 292° (WNW) 10:53:44 145.822/145.860
ZACube-1 30 Jun 10:49:20 10:53:56 80° 104° (ESE) 10:58:30 437.345
Oscar 11 30 Jun 10:55:42 11:00:04 81° 284° (WNW) 11:04:24 145.826/435.025
COMPASS 1 30 Jun 11:04:29 11:07:23 18° 291° (WNW) 11:10:16 437.405
FUNcube-1 30 Jun 11:05:53 11:10:25 71° 285° (WNW) 11:14:59 145.935
UWE-3 30 Jun 11:15:01 11:19:12 34° 288° (WNW) 11:23:24 435.000/436.395/437.385
NANOSAT C BR1 30 Jun 11:28:18 11:31:12 19° 68° (ENE) 11:34:07 145.865
PCSat 30 Jun 11:29:49 11:34:51 37° 57° (ENE) 11:39:50 145.827
AUBIESAT-1 30 Jun 11:31:11 11:34:49 33° 292° (WNW) 11:38:40 437.475
QB50P1 30 Jun 11:32:05 11:35:17 22° 70° (ENE) 11:38:30 145.935-145.965
TIGRISAT 30 Jun 11:33:27 11:37:37 53° 260° (W) 11:41:54 435.000
POPSAT HIP 1 30 Jun 11:35:22 11:38:41 23° 70° (ENE) 11:42:01 437.405
YUBILEINY 30 Jun 11:38:34 11:39:59 10° 75° (ENE) 11:41:23 435.215
UNISAT 6 30 Jun 11:39:24 11:43:27 42° 261° (W) 11:47:37 437.425
HUMSAT D 30 Jun 11:45:50 11:50:10 77° 101° (E) 11:54:27 437.325/437.525
DUCHIFAT 1 30 Jun 11:47:07 11:50:43 28° 71° (ENE) 11:54:18 145.980
QB50P2 30 Jun 11:47:37 11:51:26 35° 72° (ENE) 11:55:16 145.880/145.840
POLYITAN 1 30 Jun 11:50:14 11:54:03 36° 72° (ENE) 11:57:55 437.675
Cosmos 2491 30 Jun 11:50:21 11:58:16 37° 75° (ENE) 12:06:09 435.465 / 435.565
BEESAT 3 30 Jun 11:52:15 11:56:06 49° 58° (ENE) 11:59:56 437.485
PHONESAT 2.4 30 Jun 11:56:29 11:59:30 54° 207° (SSW) 12:02:30 2401.200-2431.200
DELFI C3 30 Jun 11:58:42 12:02:10 29° 288° (WNW) 12:05:37 145.870
AISAT 30 Jun 12:06:17 12:07:42 11° 92° (E) 12:09:07 437.250
ESTCUBE 1 30 Jun 12:08:30 12:11:54 21° 95° (E) 12:15:15 437.505/2401.250
50 SAT 30 Jun 12:09:53 12:10:52 11° 93° (E) 12:11:50 437.505
DX 1 30 Jun 12:19:24 12:20:46 11° 92° (E) 12:22:09 434.975-435.025
ANTELSAT 30 Jun 12:21:03 12:23:28 15° 267° (W) 12:25:57 437.575/2403.000
BEESAT 2 30 Jun 12:33:56 12:37:56 82° 60° (ENE) 12:41:55 435.950
BUGSAT 1 30 Jun 12:34:35 12:38:24 44° 74° (ENE) 12:42:14 437.445
RS-15 30 Jun 12:40:22 12:51:42 85° 299° (WNW) 13:03:46 29.354- 29.394
CUBEBUG 1 30 Jun 12:45:53 12:49:53 36° 98° (E) 12:53:52 437.445
JAS-2 30 Jun 12:56:38 13:04:00 54° 72° (ENE) 13:10:46 435.910
VELOX 1 30 Jun 12:59:04 13:03:19 47° 100° (E) 13:07:33 145.980
O/OREOS (USA 219) 30 Jun 12:59:32 13:03:52 47° 67° (ENE) 13:08:13 437.305
NANOSAT C BR1 30 Jun 13:03:02 13:06:41 30° 263° (W) 13:10:23 145.865
QB50P1 30 Jun 13:07:26 13:10:55 25° 264° (W) 13:14:24 145.935-145.965
POPSAT HIP 1 30 Jun 13:10:59 13:14:21 23° 264° (W) 13:17:45 437.405
PCSat 30 Jun 13:13:36 13:18:01 26° 253° (WSW) 13:22:24 145.827
Cosmos 2504 30 Jun 13:22:05 13:27:17 19° 79° (E) 13:32:38 435.465 / 435.565
DUCHIFAT 1 30 Jun 13:23:26 13:26:23 19° 265° (W) 13:29:22 145.980
QB50P2 30 Jun 13:24:48 13:27:20 16° 266° (W) 13:29:52 145.880/145.840
YUBILEINY 30 Jun 13:26:28 13:35:06 74° 93° (E) 13:43:50 435.215
SPROUT 30 Jun 13:26:55 13:30:59 41° 99° (E) 13:35:02 437.525
POLYITAN 1 30 Jun 13:27:32 13:29:57 15° 266° (W) 13:32:25 437.675
UKube-1 30 Jun 13:29:10 13:33:27 64° 101° (ESE) 13:37:42 .
BEESAT 3 30 Jun 13:32:23 13:33:18 11° 252° (WSW) 13:34:13 437.485
AIST 2 30 Jun 13:33:25 13:36:23 19° 51° (NE) 13:39:20 435.215
AISAT 30 Jun 13:40:10 13:44:26 52° 286° (WNW) 13:48:42 437.250
50 SAT 30 Jun 13:41:16 13:44:41 36° 287° (WNW) 13:48:03 437.505
ESTCUBE 1 30 Jun 13:44:46 13:48:41 30° 289° (WNW) 13:52:34 437.505/2401.250
Cosmos 2491 30 Jun 13:47:05 13:55:04 42° 272° (W) 14:03:02 435.465 / 435.565
DX 1 30 Jun 13:53:01 13:57:12 51° 286° (WNW) 14:01:24 434.975-435.025
Oscar 19 30 Jun 14:08:52 14:14:00 76° 75° (ENE) 14:19:08 437.125/150
BUGSAT 1 30 Jun 14:12:56 14:13:59 11° 268° (W) 14:15:02 437.445
CUBEBUG 1 30 Jun 14:23:06 14:25:51 17° 292° (WNW) 14:28:35 437.445
VELOX 1 30 Jun 14:37:08 14:39:21 14° 294° (WNW) 14:41:33 145.980
ITAMSAT 1 30 Jun 14:37:29 14:41:15 21° 66° (ENE) 14:45:02 435.822/435.867
TISAT 1 30 Jun 14:39:31 14:43:44 71° 102° (ESE) 14:47:55 437.305
AO-7 30 Jun 14:39:42 14:45:00 19° 54° (NE) 14:50:18 29.400- 29.500
JUGNU 30 Jun 14:40:24 14:42:45 12° 167° (SSE) 14:45:05 437.505
O/OREOS (USA 219) 30 Jun 14:40:47 14:42:48 13° 261° (W) 14:44:48 437.305
Gurwin Techsat 1B 30 Jun 14:42:14 14:47:30 67° 74° (ENE) 14:52:47 435.225
JAS-2 30 Jun 14:42:51 14:49:05 27° 264° (W) 14:54:59 435.910
ISS 30 Jun 14:53:56 14:56:30 21° 32° (NNE) 14:59:05 145.825
BEESAT 30 Jun 14:55:02 14:58:11 17° 94° (E) 15:01:17 436.000
RS-15 30 Jun 14:56:52 15:06:11 27° 324° (NW) 15:15:54 29.354- 29.394
ITUPSAT 1 30 Jun 14:57:24 15:00:39 18° 94° (E) 15:03:52 437.325
SPROUT 30 Jun 15:04:11 15:06:33 15° 293° (WNW) 15:08:54 437.525
SO-50 30 Jun 15:05:26 15:09:08 22° 110° (ESE) 15:12:50 436.795
AIST 2 30 Jun 15:11:08 15:14:58 36° 246° (WSW) 15:18:46 435.215
Cosmos 2504 30 Jun 15:11:25 15:19:29 77° 277° (W) 15:28:11 435.465 / 435.565
YUBILEINY 30 Jun 15:26:34 15:32:41 21° 292° (WNW) 15:38:54 435.215
Oscar 19 30 Jun 15:53:23 15:53:47 10° 269° (W) 15:54:11 437.125/150
SWISSCUBE 30 Jun 16:06:20 16:11:07 70° 285° (WNW) 16:15:51 437.505
ITAMSAT 1 30 Jun 16:15:26 16:20:21 43° 260° (W) 16:25:20 435.822/435.867
Gurwin Techsat 1B 30 Jun 16:25:40 16:27:51 12° 269° (W) 16:30:03 435.225
JUGNU 30 Jun 16:27:13 16:31:00 17° 177° (S) 16:34:48 437.505
AO-7 30 Jun 16:28:19 16:36:39 89° 253° (WSW) 16:45:04 29.400- 29.500
ISS 30 Jun 16:30:00 16:33:01 35° 228° (SW) 16:36:00 145.825
BEESAT 30 Jun 16:31:36 16:36:06 41° 288° (WNW) 16:40:34 436.000
ITUPSAT 1 30 Jun 16:34:07 16:38:36 40° 288° (WNW) 16:43:03 437.325
SO-50 30 Jun 16:44:46 16:49:21 39° 305° (NW) 16:53:56 436.795
KKS-1 30 Jun 16:45:35 16:49:29 29° 97° (E) 16:53:21 437.445
MOZHAYETS 4 30 Jun 16:51:29 16:55:39 32° 97° (E) 16:59:47
HORYU 2 30 Jun 17:05:50 17:09:46 33° 71° (ENE) 17:13:45 437.375
Cosmos 2504 30 Jun 17:11:02 17:14:27 13° 298° (WNW) 17:17:57 435.465 / 435.565
STARS 30 Jun 17:11:49 17:15:37 28° 97° (E) 17:19:24 437.465
RS-15 30 Jun 17:19:27 17:25:07 14° 1° (N) 17:30:53 29.354- 29.394
GONETS M04 30 Jun 17:33:00 17:37:40 16° 79° (E) 17:42:20
CUTE-I 30 Jun 17:36:20 17:37:33 11° 61° (ENE) 17:38:46 437.470
SRMSAT 30 Jun 17:46:23 17:49:45 15° 172° (S) 17:53:04 437.500
Cosmos 2499 30 Jun 17:53:38 17:57:17 13° 76° (ENE) 18:01:00 435.465 / 435.565
NOAA 15 30 Jun 17:53:59 17:58:07 24° 67° (ENE) 18:02:14 137.62
AIST 1 30 Jun 18:00:58 18:05:13 57° 278° (W) 18:09:28
JUGNU 30 Jun 18:15:53 18:19:17 16° 188° (S) 18:22:41 437.505
BRITE-PL 30 Jun 18:18:53 18:23:28 37° 73° (ENE) 18:27:46 437.365/2234.400
KKS-1 30 Jun 18:22:28 18:25:51 22° 291° (WNW) 18:29:14 437.445
CUBESAT XI-V 30 Jun 18:24:59 18:29:16 37° 98° (E) 18:33:30 437.345
AO-7 30 Jun 18:25:59 18:30:18 15° 268° (W) 18:34:40 29.400- 29.500
MOZHAYETS 4 30 Jun 18:29:07 18:32:34 21° 292° (WNW) 18:36:00
Cubesat XI-IV 30 Jun 18:38:10 18:43:12 44° 72° (ENE) 18:48:18 437.490
GOMX 1 30 Jun 18:41:46 18:45:33 26° 72° (ENE) 18:49:09 467.674
LilacSat-2 30 Jun 18:43:07 18:46:37 38° 74° (ENE) 18:50:10 437.200
HORYU 2 30 Jun 18:43:15 18:46:22 19° 265° (W) 18:49:30 437.375
STARS 30 Jun 18:48:23 18:51:47 22° 291° (WNW) 18:55:12 437.465
NOAA 18 30 Jun 18:50:39 18:56:03 67° 73° (ENE) 19:01:30 137.9125
CUTE-I 30 Jun 19:11:26 19:16:47 87° 256° (WSW) 19:22:10 437.470
HO-68 30 Jun 19:21:24 19:26:13 20° 60° (ENE) 19:31:01 435.675
GONETS M04 30 Jun 19:24:31 19:33:15 86° 276° (W) 19:41:59
DOVE 4 30 Jun 19:30:10 19:34:09 37° 73° (ENE) 19:38:01 437.250
CUSAT 1 30 Jun 19:32:33 19:35:43 55° 264° (W) 19:38:23 437.405
NOAA 15 30 Jun 19:32:45 19:37:38 37° 261° (W) 19:42:31 137.62
RS-15 30 Jun 19:34:04 19:44:05 27° 37° (NE) 19:54:01 29.354- 29.394
SRMSAT 30 Jun 19:34:25 19:38:10 17° 182° (S) 19:41:54 437.500
Cosmos 2499 30 Jun 19:40:36 19:48:51 83° 95° (E) 19:57:41 435.465 / 435.565
BRITE-PL 30 Jun 19:58:18 20:01:58 20° 264° (W) 20:05:27 437.365/2234.400
CUBESAT XI-V 30 Jun 20:03:12 20:06:20 18° 292° (WNW) 20:09:27 437.345
CINEMA 3 30 Jun 20:09:15 20:12:44 27° 71° (ENE) 20:16:15 145.822/145.860
DANDE 30 Jun 20:16:35 20:20:50 54° 266° (W) 20:24:05 436.750
COMPASS 1 30 Jun 20:17:19 20:19:40 15° 67° (ENE) 20:22:01 437.405
Cubesat XI-IV 30 Jun 20:19:38 20:23:26 20° 266° (W) 20:27:17 437.490
GOMX 1 30 Jun 20:19:51 20:23:34 24° 263° (W) 20:27:07 467.674
LilacSat-2 30 Jun 20:19:58 20:21:05 11° 268° (W) 20:22:13 437.200
CANX-2 30 Jun 20:22:51 20:26:52 41° 73° (ENE) 20:30:55 2200.000
NOAA 18 30 Jun 20:34:38 20:37:08 13° 268° (W) 20:39:38 137.9125
AO-85 30 Jun 20:36:13 20:40:17 22° 109° (ESE) 20:44:19 145.980
UWE-3 30 Jun 20:36:28 20:36:49 10° 64° (ENE) 20:37:10 435.000/436.395/437.385
STRAND 1 30 Jun 20:41:04 20:46:12 65° 101° (ESE) 20:51:18 437.568
SEEDS 30 Jun 20:42:02 20:46:01 41° 74° (ENE) 20:50:02 437.485
CUTE 1.7 + AOD 2 30 Jun 20:42:10 20:46:22 61° 76° (ENE) 20:50:37 437.475
HO-68 30 Jun 21:06:02 21:13:09 73° 256° (WSW) 21:20:21 435.675
DOVE 4 30 Jun 21:09:38 21:11:58 14° 266° (W) 21:14:17 437.250
AAUSAT CUBESAT 2 30 Jun 21:14:12 21:18:17 55° 75° (ENE) 21:22:24 437.432
M-CUBED/EXP-1 PRIME 30 Jun 21:22:12 21:25:19 44° 70° (ENE) 21:28:27 437.505
SRMSAT 30 Jun 21:24:15 21:26:34 12° 192° (SSW) 21:28:53 437.500
CUBEBUG 2 30 Jun 21:26:19 21:30:25 63° 75° (ENE) 21:34:38 437.445
GONETS M04 30 Jun 21:26:50 21:31:19 15° 295° (WNW) 21:35:48
Cosmos 2499 30 Jun 21:37:36 21:43:04 18° 294° (WNW) 21:48:45 435.465 / 435.565
ZACube-1 30 Jun 21:42:13 21:46:07 40° 73° (ENE) 21:50:09 437.345
RS-15 30 Jun 21:46:09 21:58:36 85° 62° (ENE) 22:10:49 29.354- 29.394
CINEMA 3 30 Jun 21:46:54 21:49:52 19° 265° (W) 21:52:52 145.822/145.860
Oscar 11 30 Jun 21:47:07 21:51:18 51° 74° (ENE) 21:55:31 145.826/435.025
COMPASS 1 30 Jun 21:50:54 21:54:51 39° 262° (W) 21:58:50 437.405
FUNcube-1 30 Jun 21:58:11 22:02:18 59° 75° (ENE) 22:06:32 145.935
PRISM 30 Jun 22:00:29 22:04:33 68° 102° (ESE) 22:08:35 437.425
CANX-2 30 Jun 22:00:37 22:02:52 14° 267° (W) 22:05:08 2200.000
UWE-3 30 Jun 22:08:35 22:12:41 59° 260° (W) 22:16:55 435.000/436.395/437.385
AUBIESAT-1 30 Jun 22:15:13 22:18:15 34° 257° (WSW) 22:21:19 437.475
AO-85 30 Jun 22:15:15 22:20:29 47° 303° (WNW) 22:25:35 145.980
SEEDS 30 Jun 22:19:46 22:21:53 13° 268° (W) 22:24:00 437.485
STRAND 1 30 Jun 22:22:17 22:24:47 14° 297° (WNW) 22:27:15 437.568
